Wind_Speed
25 28 20 23 21 19 14 15 16 15 19 6 12 14 7 3 1 9 14 14 14 18 20 17 7 7 9 13 9 1 11 10 7 8 8 10 11 16 17 18 21 16 15 17
31 22 17 30 26 19 16 17 18 15 16 12 12 14 10 5 4 5 8 13 10 15 13 16 16 16 8 8 6 6 9 11 7 4 3 7 11 13 13 17 19 17 17 17
31 17 25 29 30 20 17 17 16 15 17 14 12 11 13 7 1 2 4 8 7 12 12 9 11 12 16 19 18 12 12 12 9 9 12 11 13 14 16 14 10 10 13 13
35 24 24 29 32 26 18 18 15 18 16 14 16 11 13 8 4 4 4 7 4 7 11 7 5 6 10 14 16 15 13 14 13 12 10 9 9 9 8 7 7 7 8 8
32 24 27 30 24 31 21 18 19 19 21 15 15 17 14 12 6 5 2 3 3 2 4 7 5 8 5 9 10 9 9 10 10 12 10 8 7 5 5 5 5 7 9 12
40 32 35 31 28 30 27 19 23 21 21 20 17 22 14 15 8 6 7 2 2 5 5 5 5 5 9 4 2 4 5 6 7 6 7 8 8 8 6 6 6 6 12 15
42 40 32 35 35 32 30 26 25 26 24 21 20 23 10 17 15 10 8 3 4 5 5 6 10 5 4 5 3 3 3 3 5 4 4 5 5 7 10 12 14 12 11 15
43 41 36 32 31 34 32 28 26 27 24 25 25 23 21 21 20 14 13 9 9 4 8 10 9 12 8 5 5 4 5 4 5 7 8 8 9 10 12 14 15 14 13 14
44 46 34 33 30 35 33 33 20 25 29 30 27 20 21 26 19 16 20 9 10 7 10 10 8 10 12 12 10 9 7 7 8 9 10 12 13 15 16 19 20 19 17 20
41 41 32 34 34 36 39 29 28 30 34 34 28 25 19 21 17 15 19 20 16 16 15 9 10 10 9 12 14 15 16 16 14 13 14 16 17 19 20 21 23 25 24 27
36 39 35 36 43 42 41 38 36 30 36 33 29 29 21 20 20 16 21 22 21 16 17 24 22 16 14 14 15 17 18 18 17 15 16 18 20 23 25 24 25 29 33 30
38 37 40 41 42 42 42 38 33 34 36 33 29 28 30 27 24 24 26 24 20 22 25 21 18 19 18 17 17 17 20 20 20 20 18 19 23 24 30 32 32 35 37 37
40 44 43 40 43 49 49 47 41 31 31 40 32 24 25 25 20 21 18 22 25 29 28 22 15 14 18 17 14 11 15 17 21 22 22 22 24 27 32 35 33 37 46 29
41 46 46 41 41 43 49 51 46 34 37 40 39 31 24 33 24 28 23 29 30 27 29 23 17 11 12 17 13 14 15 18 21 21 22 24 26 28 28 31 29 40 30 34
45 50 46 41 37 35 50 52 44 36 35 37 31 33 24 33 30 28 27 27 32 32 35 28 20 18 19 16 18 18 17 19 22 24 25 23 24 28 30 30 27 33 33 33
35 42 45 46 39 38 54 49 49 45 38 36 34 33 28 25 32 35 33 36 37 37 32 22 22 24 20 19 20 18 20 22 25 26 25 25 27 28 29 32 34 34 34 35
43 39 36 43 35 43 50 51 53 49 46 37 36 34 27 37 28 25 31 34 34 33 33 22 18 22 25 22 22 21 24 27 28 28 28 28 30 30 32 33 35 37 39 39
37 45 44 39 36 41 49 50 51 48 42 33 30 29 29 26 32 35 37 36 34 34 32 25 28 29 29 28 27 28 29 30 30 29 30 31 32 33 34 36 37 39 41 42
20 31 45 40 39 41 42 52 50 44 43 42 35 36 28 26 27 30 31 34 32 34 34 32 29 29 30 31 32 32 34 32 30 31 31 32 33 34 36 37 38 39 40 41
25 30 47 42 31 42 39 45 50 56 44 38 39 33 33 33 33 29 30 32 31 29 29 28 30 31 30 31 34 35 34 34 34 35 36 35 35 36 37 39 41 42 43 44
34 39 40 38 42 42 35 36 50 56 54 41 43 37 39 38 36 37 38 36 31 32 30 28 27 27 29 31 34 36 36 36 36 37 37 36 37 38 40 42 44 45 46 49
20 33 40 36 39 45 38 38 43 54 52 51 51 43 43 42 41 38 38 38 35 34 30 30 30 27 29 31 33 35 36 36 38 40 40 40 40 41 43 45 47 48 51 54
20 33 31 40 43 42 41 43 45 46 45 54 47 49 50 45 44 43 43 41 40 39 37 35 32 32 32 33 33 33 34 37 40 41 43 42 42 44 47 48 50 52 54 55
24 16 25 38 33 38 39 40 28 31 36 41 40 49 51 51 49 46 45 44 42 39 39 38 38 37 38 38 37 37 38 39 41 42 44 45 47 49 49 52 54 54 55 58
31 24 18 23 25 32 40 36 37 32 32 34 36 32 39 47 48 48 48 47 43 40 36 35 35 35 37 36 39 42 41 41 41 42 44 48 49 51 50 52 53 55 59 62
29 25 21 20 23 25 21 39 36 34 35 28 34 38 37 34 32 37 34 34 33 34 36 36 38 40 42 44 45 42 44 44 42 44 46 51 51 51 55 54 57 61 64 68
Wind_Direction
269 270 295 257 255 257 267 279 268 273 284 297 304 295 304 72 39 324 347 360 21 34 26 61 47 223 222 187 190 292 230 264 258 254 222 212 201 218 229 235 239 222 197 190
261 273 262 256 259 250 257 273 274 264 276 281 272 287 307 297 2 280 7 17 35 37 32 40 63 75 95 145 161 186 201 221 222 222 151 154 150 166 143 150 152 158 167 176
260 250 248 265 261 249 254 260 250 263 266 273 269 262 276 258 13 244 43 39 31 52 25 29 49 70 93 103 119 139 158 141 130 125 122 127 138 143 155 158 153 178 185 195
251 239 251 253 262 255 251 250 259 263 272 268 262 245 258 251 112 99 25 32 26 42 23 24 41 86 88 92 100 108 119 128 124 122 132 133 137 166 163 170 194 216 229 242
254 249 254 253 258 253 240 241 253 255 259 251 242 246 239 248 195 175 176 77 315 33 41 14 11 25 63 109 125 139 99 95 108 120 127 142 152 155 169 177 202 215 226 232
242 235 239 244 242 237 234 230 243 253 247 241 229 249 233 259 249 235 153 88 345 25 14 331 333 353 357 7 56 117 141 156 176 166 166 179 190 200 207 217 226 248 250 249
245 245 244 243 242 242 229 228 238 246 242 234 238 254 228 245 241 207 201 189 299 24 16 305 285 291 328 338 343 344 316 310 310 297 274 262 240 232 226 237 249 261 265 256
239 239 241 245 251 253 237 232 239 246 248 239 239 254 234 253 245 223 194 235 270 301 322 327 302 283 268 280 267 279 293 303 305 303 294 281 274 264 256 266 267 264 269 253
239 239 237 238 241 236 227 226 238 248 242 237 238 247 252 245 250 261 260 260 315 306 292 298 317 277 273 266 272 263 251 271 278 272 275 273 271 273 272 276 279 277 269 256
234 237 230 227 228 222 230 226 230 231 239 237 225 241 246 228 228 247 267 277 309 279 252 272 299 278 271 274 265 265 271 271 271 272 273 270 271 272 268 269 272 274 274 266
230 236 226 218 223 219 222 218 223 228 242 244 231 233 238 233 238 258 264 267 281 270 249 273 294 264 252 265 268 261 253 263 269 263 272 281 285 286 281 280 274 270 273 267
218 226 226 218 221 226 221 221 232 234 236 246 245 229 237 242 255 251 263 276 269 276 286 296 277 282 261 249 260 261 257 256 259 270 272 276 283 282 286 288 285 279 269 256
209 217 220 213 219 225 226 220 214 232 229 237 246 237 237 248 245 256 261 266 278 286 291 297 282 286 295 271 269 260 260 263 269 273 279 282 283 279 281 284 283 278 263 271
205 217 222 220 228 224 230 222 217 216 232 230 238 242 235 249 236 238 249 262 274 280 283 292 287 278 307 282 255 252 257 261 264 267 270 273 275 277 281 286 287 271 297 294
204 218 220 219 218 231 230 227 218 220 232 238 238 248 235 237 234 236 259 261 265 273 276 272 271 282 289 246 255 266 269 270 274 277 280 281 281 281 286 291 293 293 290 286
227 216 221 220 222 225 225 218 217 214 225 242 243 242 237 233 236 243 248 253 260 264 271 274 252 264 261 255 254 258 269 276 281 284 287 289 289 292 293 295 292 289 290 290
219 226 221 222 222 219 220 214 221 219 219 229 231 236 246 242 243 249 252 255 264 258 275 284 283 283 276 258 260 269 277 283 287 289 290 292 297 297 294 292 292 292 291 289
221 224 217 226 225 222 218 215 220 222 218 224 233 231 238 249 251 251 255 255 258 266 270 274 282 273 267 268 268 273 281 286 285 287 289 292 292 293 291 288 287 288 290 292
219 219 226 224 225 228 226 219 225 219 217 217 228 229 230 236 249 256 259 261 262 262 267 278 275 268 268 268 271 280 284 283 284 286 286 285 284 284 285 286 287 287 288 289
234 229 221 229 227 224 227 222 224 229 222 213 229 228 238 242 249 259 266 262 263 265 274 277 271 270 269 268 271 274 276 279 282 283 284 286 288 289 290 289 288 288 289 291
228 226 228 228 233 231 236 229 226 231 228 227 239 224 238 244 251 261 265 266 264 272 270 270 272 273 272 275 274 273 274 278 280 281 284 287 288 289 289 289 288 287 287 289
232 235 221 221 230 237 231 230 228 228 232 230 235 239 242 245 251 253 256 260 263 267 267 268 272 277 278 279 278 277 279 280 279 280 281 281 283 286 287 286 285 284 283 284
241 225 234 227 233 235 234 234 238 227 236 226 231 236 246 252 251 249 254 256 259 263 268 276 281 280 284 287 285 283 284 284 284 282 281 282 281 281 281 279 279 281 283 285
244 237 224 227 236 236 232 224 222 222 230 234 234 235 239 246 254 258 260 263 266 271 274 278 281 281 284 282 279 279 284 284 285 282 280 279 278 280 282 283 282 282 285 286
233 246 231 240 237 230 232 229 226 228 242 247 243 240 243 245 247 253 259 265 272 273 275 276 276 277 281 282 282 278 277 278 280 279 280 282 283 283 286 291 289 286 286 287
220 237 246 259 263 234 228 230 229 232 242 248 240 238 245 250 256 261 258 263 267 276 282 285 281 281 281 285 284 283 281 278 278 282 288 289 289 286 287 287 285 285 288 290
Height
5754 5754 5760 5760 5757 5754 5753 5753 5754 5754 5752 5747 5749 5751 5745 5747 5747 5744 5742 5743 5737 5735 5733 5729 5729 5728 5730 5729 5730 5730 5733 5734 5734 5736 5736 5737 5737 5741 5744 5747 5749 5750 5754 5757
5747 5752 5753 5753 5752 5750 5748 5749 5751 5750 5748 5745 5745 5747 5742 5743 5744 5743 5742 5742 5739 5736 5735 5732 5733 5730 5730 5729 5727 5731 5732 5734 5733 5736 5736 5736 5737 5740 5741 5746 5747 5751 5756 5758
5740 5748 5742 5746 5748 5746 5745 5745 5745 5745 5743 5742 5742 5744 5740 5741 5743 5742 5741 5740 5740 5737 5738 5737 5732 5733 5734 5729 5727 5731 5733 5733 5733 5734 5737 5739 5741 5742 5745 5746 5747 5753 5754 5755
5731 5739 5736 5738 5742 5740 5740 5739 5739 5741 5742 5740 5739 5742 5739 5739 5741 5741 5741 5740 5742 5740 5741 5739 5739 5737 5733 5730 5729 5732 5734 5734 5735 5735 5739 5740 5740 5744 5743 5745 5749 5750 5751 5751
5727 5733 5731 5731 5739 5733 5738 5733 5735 5736 5738 5739 5736 5737 5736 5736 5739 5739 5740 5738 5739 5738 5738 5738 5738 5735 5733 5730 5728 5731 5732 5733 5736 5738 5739 5742 5743 5743 5744 5745 5746 5746 5747 5749
5715 5720 5721 5724 5729 5728 5730 5728 5729 5730 5733 5735 5732 5731 5735 5733 5735 5737 5735 5735 5736 5734 5734 5735 5733 5732 5731 5730 5730 5729 5732 5733 5735 5736 5737 5740 5741 5739 5738 5740 5741 5741 5743 5744
5707 5710 5715 5717 5718 5721 5719 5721 5724 5724 5727 5730 5728 5728 5733 5729 5730 5731 5732 5732 5733 5731 5732 5732 5730 5730 5730 5730 5729 5728 5730 5733 5734 5734 5735 5735 5735 5735 5737 5738 5739 5740 5740 5739
5694 5700 5705 5712 5713 5715 5714 5716 5718 5719 5723 5725 5723 5723 5726 5724 5725 5726 5727 5730 5731 5730 5730 5730 5729 5728 5729 5729 5730 5731 5731 5731 5731 5731 5732 5732 5732 5734 5734 5735 5735 5736 5735 5733
5683 5689 5700 5702 5704 5707 5708 5706 5716 5713 5714 5717 5718 5718 5718 5719 5720 5720 5721 5724 5727 5728 5729 5728 5727 5727 5727 5727 5728 5729 5730 5730 5730 5730 5730 5730 5731 5732 5731 5730 5729 5728 5729 5728
5673 5678 5687 5692 5695 5696 5698 5704 5706 5704 5706 5709 5712 5712 5714 5715 5715 5716 5717 5719 5721 5723 5724 5725 5725 5725 5725 5724 5725 5725 5725 5727 5726 5726 5727 5727 5728 5728 5727 5727 5725 5722 5722 5721
5662 5667 5676 5681 5681 5686 5689 5691 5695 5699 5699 5703 5706 5708 5709 5711 5711 5713 5714 5714 5716 5717 5719 5719 5719 5720 5720 5720 5720 5720 5720 5720 5721 5722 5722 5722 5722 5721 5720 5720 5719 5716 5714 5713
5648 5655 5661 5669 5675 5680 5683 5686 5690 5691 5694 5698 5700 5704 5704 5707 5708 5709 5708 5708 5708 5709 5710 5712 5712 5712 5715 5716 5715 5716 5715 5716 5717 5717 5718 5717 5716 5713 5711 5710 5708 5707 5703 5704
5637 5639 5648 5659 5665 5667 5670 5676 5678 5685 5689 5689 5693 5699 5700 5701 5702 5704 5705 5704 5703 5703 5704 5706 5706 5707 5707 5710 5714 5713 5713 5713 5711 5711 5711 5711 5710 5708 5704 5701 5700 5695 5694 5694
5625 5631 5637 5649 5656 5662 5664 5668 5672 5676 5679 5684 5685 5692 5695 5692 5699 5698 5699 5699 5698 5699 5699 5701 5701 5702 5703 5704 5707 5708 5709 5707 5706 5706 5707 5706 5704 5702 5699 5695 5689 5684 5682 5687
5613 5622 5630 5639 5646 5653 5656 5659 5666 5669 5673 5676 5683 5684 5689 5689 5691 5693 5693 5692 5694 5695 5694 5696 5698 5697 5698 5700 5701 5700 5701 5701 5700 5699 5699 5699 5698 5695 5691 5687 5680 5682 5681 5681
5609 5612 5621 5627 5636 5640 5640 5650 5656 5659 5666 5669 5674 5676 5683 5684 5684 5685 5686 5687 5688 5687 5689 5691 5693 5692 5692 5692 5693 5693 5691 5692 5691 5691 5690 5689 5688 5685 5682 5679 5677 5676 5674 5672
5602 5606 5612 5619 5628 5631 5632 5643 5646 5652 5657 5661 5663 5669 5674 5674 5677 5678 5679 5680 5681 5682 5681 5683 5684 5684 5684 5686 5686 5685 5684 5683 5681 5680 5680 5678 5675 5674 5673 5671 5668 5665 5662 5659
5596 5599 5606 5608 5617 5618 5628 5637 5642 5646 5652 5656 5659 5663 5664 5666 5669 5671 5673 5675 5675 5675 5675 5677 5677 5677 5676 5676 5677 5677 5677 5676 5674 5672 5671 5669 5667 5665 5663 5661 5659 5656 5653 5650
5585 5589 5595 5600 5607 5614 5618 5632 5635 5636 5642 5646 5652 5655 5660 5661 5663 5665 5667 5669 5670 5670 5671 5672 5671 5670 5669 5668 5668 5668 5668 5667 5666 5664 5662 5661 5659 5657 5654 5652 5649 5646 5642 5640
5577 5581 5590 5594 5600 5603 5613 5622 5628 5628 5633 5641 5644 5649 5653 5655 5655 5658 5660 5662 5663 5664 5665 5665 5663 5662 5661 5661 5661 5660 5659 5659 5657 5655 5653 5651 5649 5646 5643 5640 5637 5634 5632 5629
5572 5577 5583 5588 5591 5595 5604 5611 5618 5620 5631 5634 5634 5639 5644 5646 5649 5652 5653 5653 5656 5657 5657 5656 5656 5655 5653 5653 5652 5651 5650 5649 5647 5644 5642 5640 5637 5633 5631 5628 5625 5622 5618 5614
5568 5571 5576 5581 5584 5588 5599 5603 5607 5612 5619 5625 5626 5632 5634 5636 5640 5642 5644 5645 5647 5648 5648 5648 5647 5647 5646 5644 5643 5642 5641 5639 5635 5633 5631 5629 5626 5622 5619 5615 5612 5608 5605 5601
5562 5569 5569 5573 5576 5583 5589 5595 5602 5606 5611 5615 5619 5625 5628 5630 5632 5635 5636 5637 5638 5638 5638 5638 5639 5638 5637 5635 5634 5632 5630 5627 5624 5622 5619 5617 5613 5610 5605 5601 5598 5594 5590 5585
5555 5560 5564 5567 5573 5577 5583 5589 5591 5595 5604 5607 5612 5616 5619 5622 5624 5625 5626 5627 5628 5628 5629 5630 5630 5629 5627 5625 5622 5620 5617 5615 5612 5609 5606 5603 5599 5596 5592 5587 5583 5579 5574 5569
5552 5554 5558 5562 5568 5571 5577 5582 5587 5592 5596 5600 5604 5608 5611 5611 5612 5615 5617 5617 5618 5619 5619 5619 5618 5617 5615 5613 5610 5608 5605 5602 5598 5595 5593 5590 5585 5581 5577 5573 5568 5562 5556 5550
5546 5549 5552 5558 5561 5564 5571 5574 5580 5584 5588 5592 5594 5597 5601 5604 5606 5606 5607 5608 5609 5609 5608 5607 5606 5604 5602 5600 5597 5594 5591 5588 5585 5582 5579 5575 5570 5566 5561 5556 5550 5544 5539 5532